Time,TemperatureF,DewpointF,PressureIn,WindDirection,WindDirectionDegrees,WindSpeedMPH,WindSpeedGustMPH,Humidity,HourlyPrecipIn,Conditions,Clouds,dailyrainin,SoftwareType,DateUTC
2013-03-19 00:03:00,38.0,37.0,-100.00,East,100,9.0,17.0,94,-99.99,,,-99.99,,2013-03-19 04:03:00,
2013-03-19 00:13:00,38.0,37.0,-100.00,East,90,9.0,21.0,94,-99.99,,,-99.99,,2013-03-19 04:13:00,
2013-03-19 00:23:00,38.0,37.0,-100.00,East,90,9.0,21.0,94,-99.99,,,-99.99,,2013-03-19 04:23:00,
2013-03-19 00:34:00,38.0,37.0,-100.00,ENE,75,5.0,19.0,94,-99.99,,,-99.99,,2013-03-19 04:34:00,
2013-03-19 00:43:00,39.0,37.0,-100.00,East,100,7.0,15.0,94,-99.99,,,-99.99,,2013-03-19 04:43:00,
2013-03-19 00:53:00,39.0,37.0,-100.00,East,100,7.0,15.0,94,-99.99,,,-99.99,,2013-03-19 04:53:00,
2013-03-19 01:02:00,39.0,38.0,-100.00,East,90,8.0,20.0,95,-99.99,,,-99.99,,2013-03-19 05:02:00,
2013-03-19 01:12:00,39.0,38.0,-100.00,East,90,8.0,20.0,95,-99.99,,,-99.99,,2013-03-19 05:12:00,
2013-03-19 01:32:00,39.0,38.0,-100.00,ESE,105,7.0,19.0,95,-99.99,,,-99.99,,2013-03-19 05:32:00,
2013-03-19 01:43:00,39.0,38.0,-100.00,ENE,70,9.0,16.0,95,-99.99,,,-99.99,,2013-03-19 05:43:00,
2013-03-19 01:52:00,39.0,38.0,-100.00,ENE,70,9.0,16.0,95,-99.99,,,-99.99,,2013-03-19 05:52:00,
2013-03-19 02:03:00,39.0,38.0,-100.00,ESE,110,8.0,19.0,95,-99.99,,,-99.99,,2013-03-19 06:03:00,
2013-03-19 02:12:00,39.0,38.0,-100.00,East,90,12.0,22.0,95,-99.99,,,-99.99,,2013-03-19 06:12:00,
2013-03-19 02:22:00,39.0,38.0,-100.00,East,90,12.0,22.0,95,-99.99,,,-99.99,,2013-03-19 06:22:00,
2013-03-19 02:32:00,39.0,38.0,-100.00,SE,135,7.0,23.0,95,-99.99,,,-99.99,,2013-03-19 06:32:00,
2013-03-19 02:42:00,39.0,38.0,-100.00,ESE,105,12.0,25.0,95,-99.99,,,-99.99,,2013-03-19 06:42:00,
2013-03-19 02:53:00,39.0,38.0,-100.00,ESE,105,12.0,25.0,95,-99.99,,,-99.99,,2013-03-19 06:53:00,
2013-03-19 03:03:00,39.0,38.0,-100.00,East,85,8.0,21.0,95,-99.99,,,-99.99,,2013-03-19 07:03:00,
2013-03-19 03:12:00,39.0,38.0,-100.00,East,80,11.0,19.0,95,-99.99,,,-99.99,,2013-03-19 07:12:00,
2013-03-19 03:22:00,39.0,38.0,-100.00,East,80,11.0,19.0,95,-99.99,,,-99.99,,2013-03-19 07:22:00,
2013-03-19 03:30:00,39.0,38.0,-100.00,ENE,75,8.0,19.0,95,-99.99,,,-99.99,,2013-03-19 07:30:00,
2013-03-19 03:32:00,39.0,38.0,-100.00,ENE,75,8.0,18.0,95,-99.99,,,-99.99,,2013-03-19 07:32:00,
2013-03-19 03:42:00,39.0,38.0,-100.00,NE,50,10.0,18.0,95,-99.99,,,-99.99,,2013-03-19 07:42:00,
2013-03-19 03:53:00,39.0,38.0,-100.00,NE,50,10.0,18.0,95,-99.99,,,-99.99,,2013-03-19 07:53:00,
2013-03-19 04:03:00,39.0,38.0,-100.00,ENE,75,8.0,13.0,95,-99.99,,,-99.99,,2013-03-19 08:03:00,
2013-03-19 04:13:00,39.0,38.0,-100.00,ENE,75,8.0,19.0,95,-99.99,,,-99.99,,2013-03-19 08:13:00,
2013-03-19 04:22:00,39.0,38.0,-100.00,ENE,75,8.0,19.0,95,-99.99,,,-99.99,,2013-03-19 08:22:00,
2013-03-19 04:43:00,39.0,38.0,-100.00,East,80,9.0,17.0,95,-99.99,,,-99.99,,2013-03-19 08:43:00,
2013-03-19 04:53:00,39.0,38.0,-100.00,East,80,9.0,17.0,95,-99.99,,,-99.99,,2013-03-19 08:53:00,
2013-03-19 05:00:00,39.0,38.0,-100.00,ENE,75,8.0,17.0,95,-99.99,,,-99.99,,2013-03-19 09:00:00,
2013-03-19 05:03:00,39.0,38.0,-100.00,East,100,9.0,15.0,95,-99.99,,,-99.99,,2013-03-19 09:03:00,
2013-03-19 05:12:00,39.0,38.0,-100.00,East,80,7.0,14.0,95,-99.99,,,-99.99,,2013-03-19 09:12:00,
2013-03-19 05:23:00,39.0,38.0,-100.00,East,80,7.0,14.0,95,-99.99,,,-99.99,,2013-03-19 09:23:00,
2013-03-19 05:33:00,39.0,38.0,-100.00,NE,50,7.0,16.0,95,-99.99,,,-99.99,,2013-03-19 09:33:00,
2013-03-19 05:43:00,39.0,38.0,-100.00,ENE,75,8.0,17.0,95,-99.99,,,-99.99,,2013-03-19 09:43:00,
2013-03-19 05:53:00,39.0,38.0,-100.00,ENE,75,8.0,17.0,95,-99.99,,,-99.99,,2013-03-19 09:53:00,
2013-03-19 06:13:00,39.0,38.0,-100.00,East,80,6.0,13.0,95,-99.99,,,-99.99,,2013-03-19 10:13:00,
2013-03-19 06:23:00,39.0,38.0,-100.00,East,80,6.0,13.0,95,-99.99,,,-99.99,,2013-03-19 10:23:00,
2013-03-19 06:33:00,39.0,38.0,-100.00,ENE,75,6.0,13.0,95,-99.99,,,-99.99,,2013-03-19 10:33:00,
2013-03-19 06:42:00,39.0,38.0,-100.00,ENE,65,10.0,16.0,95,-99.99,,,-99.99,,2013-03-19 10:42:00,
2013-03-19 06:52:00,39.0,38.0,-100.00,ENE,65,10.0,16.0,95,-99.99,,,-99.99,,2013-03-19 10:52:00,
2013-03-19 07:03:00,39.0,38.0,-100.00,ESE,110,5.0,17.0,95,-99.99,,,-99.99,,2013-03-19 11:03:00,
2013-03-19 07:12:00,39.0,38.0,-100.00,East,80,9.0,20.0,95,-99.99,,,-99.99,,2013-03-19 11:12:00,
2013-03-19 07:22:00,39.0,38.0,-100.00,East,80,9.0,20.0,95,-99.99,,,-99.99,,2013-03-19 11:22:00,
2013-03-19 07:33:00,39.0,38.0,-100.00,East,90,11.0,18.0,95,-99.99,,,-99.99,,2013-03-19 11:33:00,
2013-03-19 07:43:00,39.0,38.0,-100.00,ENE,65,9.0,14.0,95,-99.99,,,-99.99,,2013-03-19 11:43:00,
2013-03-19 07:53:00,39.0,38.0,-100.00,ENE,65,9.0,14.0,95,-99.99,,,-99.99,,2013-03-19 11:53:00,
2013-03-19 08:02:00,39.0,38.0,-100.00,ENE,70,5.0,16.0,95,-99.99,,,-99.99,,2013-03-19 12:02:00,
2013-03-19 08:12:00,39.0,38.0,-100.00,ENE,65,4.0,12.0,95,-99.99,,,-99.99,,2013-03-19 12:12:00,
2013-03-19 08:23:00,39.0,38.0,-100.00,ENE,65,4.0,12.0,95,-99.99,,,-99.99,,2013-03-19 12:23:00,
2013-03-19 08:33:00,39.0,38.0,-100.00,East,95,4.0,11.0,95,-99.99,,,-99.99,,2013-03-19 12:33:00,
2013-03-19 08:43:00,39.0,38.0,-100.00,ENE,65,6.0,13.0,95,-99.99,,,-99.99,,2013-03-19 12:43:00,
2013-03-19 08:52:00,39.0,38.0,-100.00,ENE,65,6.0,13.0,95,-99.99,,,-99.99,,2013-03-19 12:52:00,
2013-03-19 09:01:00,39.0,37.0,-100.00,ENE,60,6.0,11.0,95,-99.99,,,-99.99,,2013-03-19 13:01:00,
2013-03-19 09:02:00,39.0,38.0,-100.00,ENE,65,5.0,12.0,95,-99.99,,,-99.99,,2013-03-19 13:02:00,
2013-03-19 09:12:00,39.0,37.0,-100.00,North,10,3.0,12.0,95,-99.99,,,-99.99,,2013-03-19 13:12:00,
2013-03-19 09:23:00,39.0,37.0,-100.00,North,10,3.0,12.0,95,-99.99,,,-99.99,,2013-03-19 13:23:00,
2013-03-19 09:33:00,38.0,37.0,-100.00,East,80,4.0,11.0,95,-99.99,,,-99.99,,2013-03-19 13:33:00,
2013-03-19 09:42:00,39.0,37.0,-100.00,ENE,60,6.0,11.0,95,-99.99,,,-99.99,,2013-03-19 13:42:00,
2013-03-19 09:53:00,39.0,37.0,-100.00,ENE,60,6.0,11.0,95,-99.99,,,-99.99,,2013-03-19 13:53:00,
2013-03-19 10:12:00,39.0,38.0,-100.00,NE,45,5.0,8.0,95,-99.99,,,-99.99,,2013-03-19 14:12:00,
2013-03-19 10:22:00,39.0,38.0,-100.00,NE,45,5.0,8.0,95,-99.99,,,-99.99,,2013-03-19 14:22:00,
2013-03-19 10:32:00,39.0,38.0,-100.00,NE,40,4.0,10.0,95,-99.99,,,-99.99,,2013-03-19 14:32:00,
2013-03-19 10:42:00,39.0,38.0,-100.00,NNE,25,4.0,8.0,95,-99.99,,,-99.99,,2013-03-19 14:42:00,
2013-03-19 10:53:00,39.0,38.0,-100.00,NNE,25,4.0,8.0,95,-99.99,,,-99.99,,2013-03-19 14:53:00,
2013-03-19 11:02:00,39.0,38.0,-100.00,NE,45,3.0,8.0,95,-99.99,,,-99.99,,2013-03-19 15:02:00,
2013-03-19 11:12:00,39.0,38.0,-100.00,NW,320,3.0,8.0,95,-99.99,,,-99.99,,2013-03-19 15:12:00,
2013-03-19 11:23:00,39.0,38.0,-100.00,NW,320,3.0,8.0,95,-99.99,,,-99.99,,2013-03-19 15:23:00,
2013-03-19 11:34:00,39.0,38.0,-100.00,North,0,2.0,9.0,95,-99.99,,,-99.99,,2013-03-19 15:34:00,
2013-03-19 11:44:00,39.0,37.0,-100.00,North,350,5.0,12.0,95,-99.99,,,-99.99,,2013-03-19 15:44:00,
2013-03-19 11:54:00,39.0,37.0,-100.00,North,350,5.0,12.0,95,-99.99,,,-99.99,,2013-03-19 15:54:00,
2013-03-19 12:04:00,39.0,37.0,-100.00,North,355,7.0,13.0,95,-99.99,,,-99.99,,2013-03-19 16:04:00,
2013-03-19 12:13:00,38.0,37.0,-100.00,North,0,7.0,11.0,95,-99.99,,,-99.99,,2013-03-19 16:13:00,
2013-03-19 12:24:00,38.0,37.0,-100.00,North,0,7.0,11.0,95,-99.99,,,-99.99,,2013-03-19 16:24:00,
2013-03-19 12:34:00,38.0,37.0,-100.00,NNW,335,4.0,11.0,95,-99.99,,,-99.99,,2013-03-19 16:34:00,
2013-03-19 12:44:00,38.0,37.0,-100.00,NNE,30,6.0,12.0,95,-99.99,,,-99.99,,2013-03-19 16:44:00,
2013-03-19 12:54:00,38.0,37.0,-100.00,NNE,30,6.0,12.0,95,-99.99,,,-99.99,,2013-03-19 16:54:00,
2013-03-19 13:03:00,38.0,37.0,-100.00,North,0,5.0,10.0,95,-99.99,,,-99.99,,2013-03-19 17:03:00,
2013-03-19 13:14:00,39.0,38.0,-100.00,North,5,5.0,14.0,95,-99.99,,,-99.99,,2013-03-19 17:14:00,
2013-03-19 13:24:00,39.0,38.0,-100.00,North,5,5.0,14.0,95,-99.99,,,-99.99,,2013-03-19 17:24:00,
2013-03-19 13:34:00,39.0,38.0,-100.00,North,0,5.0,12.0,95,-99.99,,,-99.99,,2013-03-19 17:34:00,
2013-03-19 13:44:00,39.0,38.0,-100.00,North,0,6.0,13.0,95,-99.99,,,-99.99,,2013-03-19 17:44:00,
2013-03-19 13:53:00,39.0,38.0,-100.00,North,0,6.0,13.0,95,-99.99,,,-99.99,,2013-03-19 17:53:00,
2013-03-19 14:03:00,40.0,38.0,-100.00,NNW,335,5.0,11.0,95,-99.99,,,-99.99,,2013-03-19 18:03:00,
2013-03-19 14:14:00,40.0,38.0,-100.00,NNW,340,7.0,13.0,95,-99.99,,,-99.99,,2013-03-19 18:14:00,
2013-03-19 14:23:00,40.0,38.0,-100.00,NNW,340,7.0,13.0,95,-99.99,,,-99.99,,2013-03-19 18:23:00,
2013-03-19 14:34:00,40.0,39.0,-100.00,NNW,330,5.0,11.0,94,-99.99,,,-99.99,,2013-03-19 18:34:00,
2013-03-19 14:43:00,41.0,39.0,-100.00,North,355,5.0,10.0,94,-99.99,,,-99.99,,2013-03-19 18:43:00,
2013-03-19 14:53:00,41.0,39.0,-100.00,North,355,5.0,10.0,94,-99.99,,,-99.99,,2013-03-19 18:53:00,
2013-03-19 15:03:00,40.0,38.0,-100.00,North,5,5.0,11.0,93,-99.99,,,-99.99,,2013-03-19 19:03:00,
2013-03-19 15:12:00,41.0,38.0,-100.00,NNE,15,3.0,11.0,91,-99.99,,,-99.99,,2013-03-19 19:12:00,
2013-03-19 15:23:00,41.0,38.0,-100.00,NNE,15,3.0,11.0,91,-99.99,,,-99.99,,2013-03-19 19:23:00,
2013-03-19 15:33:00,41.0,38.0,-100.00,North,0,5.0,10.0,88,-99.99,,,-99.99,,2013-03-19 19:33:00,
2013-03-19 15:43:00,43.0,38.0,-100.00,NNW,330,4.0,10.0,84,-99.99,,,-99.99,,2013-03-19 19:43:00,
2013-03-19 15:52:00,43.0,38.0,-100.00,NNW,330,4.0,10.0,84,-99.99,,,-99.99,,2013-03-19 19:52:00,
2013-03-19 16:12:00,44.0,34.0,-100.00,North,355,7.0,17.0,67,-99.99,,,-99.99,,2013-03-19 20:12:00,
2013-03-19 16:23:00,44.0,34.0,-100.00,North,355,7.0,17.0,67,-99.99,,,-99.99,,2013-03-19 20:23:00,
2013-03-19 16:33:00,45.0,33.0,-100.00,North,5,6.0,19.0,62,-99.99,,,-99.99,,2013-03-19 20:33:00,
2013-03-19 16:43:00,45.0,31.0,-100.00,North,355,9.0,18.0,57,-99.99,,,-99.99,,2013-03-19 20:43:00,
2013-03-19 16:52:00,45.0,31.0,-100.00,North,355,9.0,18.0,57,-99.99,,,-99.99,,2013-03-19 20:52:00,
2013-03-19 17:02:00,46.0,28.0,-100.00,North,0,9.0,19.0,49,-99.99,,,-99.99,,2013-03-19 21:02:00,
2013-03-19 17:12:00,47.0,27.0,-100.00,NNW,340,6.0,14.0,45,-99.99,,,-99.99,,2013-03-19 21:12:00,
2013-03-19 17:23:00,47.0,27.0,-100.00,NNW,340,6.0,14.0,45,-99.99,,,-99.99,,2013-03-19 21:23:00,
2013-03-19 17:43:00,47.0,26.0,-100.00,North,0,5.0,13.0,43,-99.99,,,-99.99,,2013-03-19 21:43:00,
2013-03-19 17:53:00,47.0,26.0,-100.00,North,0,5.0,13.0,43,-99.99,,,-99.99,,2013-03-19 21:53:00,
2013-03-19 18:03:00,48.0,25.0,-100.00,North,0,6.0,16.0,41,-99.99,,,-99.99,,2013-03-19 22:03:00,
2013-03-19 18:13:00,48.0,25.0,-100.00,NW,325,3.0,11.0,40,-99.99,,,-99.99,,2013-03-19 22:13:00,
2013-03-19 18:24:00,48.0,25.0,-100.00,NW,325,3.0,11.0,40,-99.99,,,-99.99,,2013-03-19 22:24:00,
2013-03-19 18:33:00,48.0,25.0,-100.00,NW,305,4.0,10.0,39,-99.99,,,-99.99,,2013-03-19 22:33:00,
2013-03-19 18:43:00,48.0,25.0,-100.00,NW,315,3.0,8.0,39,-99.99,,,-99.99,,2013-03-19 22:43:00,
2013-03-19 18:53:00,48.0,25.0,-100.00,NW,315,3.0,8.0,39,-99.99,,,-99.99,,2013-03-19 22:53:00,
2013-03-19 19:03:00,48.0,23.0,-100.00,WNW,295,3.0,10.0,37,-99.99,,,-99.99,,2013-03-19 23:03:00,
2013-03-19 19:12:00,48.0,24.0,-100.00,NW,320,1.0,6.0,38,-99.99,,,-99.99,,2013-03-19 23:12:00,
2013-03-19 19:22:00,48.0,24.0,-100.00,NW,320,1.0,6.0,38,-99.99,,,-99.99,,2013-03-19 23:22:00,
2013-03-19 19:33:00,47.0,23.0,-100.00,WNW,300,1.0,7.0,39,-99.99,,,-99.99,,2013-03-19 23:33:00,
2013-03-19 19:43:00,45.0,24.0,-100.00,WNW,300,1.0,4.0,43,-99.99,,,-99.99,,2013-03-19 23:43:00,
2013-03-19 19:52:00,45.0,24.0,-100.00,WNW,300,1.0,4.0,43,-99.99,,,-99.99,,2013-03-19 23:52:00,
2013-03-19 20:03:00,46.0,24.0,-100.00,WNW,290,7.0,14.0,41,-99.99,,,-99.99,,2013-03-20 00:03:00,
2013-03-19 20:13:00,45.0,24.0,-100.00,NW,305,2.0,15.0,42,-99.99,,,-99.99,,2013-03-20 00:13:00,
2013-03-19 20:22:00,45.0,24.0,-100.00,NW,305,2.0,15.0,42,-99.99,,,-99.99,,2013-03-20 00:22:00,
2013-03-19 20:33:00,45.0,23.0,-100.00,NW,305,6.0,16.0,42,-99.99,,,-99.99,,2013-03-20 00:33:00,
2013-03-19 20:42:00,45.0,23.0,-100.00,North,0,6.0,10.0,40,-99.99,,,-99.99,,2013-03-20 00:42:00,
2013-03-19 20:52:00,45.0,23.0,-100.00,North,0,6.0,10.0,40,-99.99,,,-99.99,,2013-03-20 00:52:00,
2013-03-19 21:03:00,45.0,23.0,-100.00,NW,325,1.0,10.0,41,-99.99,,,-99.99,,2013-03-20 01:03:00,
2013-03-19 21:12:00,44.0,22.0,-100.00,NW,315,2.0,4.0,42,-99.99,,,-99.99,,2013-03-20 01:12:00,
2013-03-19 21:23:00,44.0,22.0,-100.00,NW,315,2.0,4.0,42,-99.99,,,-99.99,,2013-03-20 01:23:00,
2013-03-19 21:32:00,42.0,23.0,-100.00,WSW,250,0.0,0.0,46,-99.99,,,-99.99,,2013-03-20 01:32:00,
2013-03-19 21:43:00,41.0,23.0,-100.00,WSW,245,0.0,0.0,47,-99.99,,,-99.99,,2013-03-20 01:43:00,
2013-03-19 21:52:00,41.0,23.0,-100.00,WSW,245,0.0,0.0,47,-99.99,,,-99.99,,2013-03-20 01:52:00,
2013-03-19 22:03:00,40.0,23.0,-100.00,WSW,245,0.0,0.0,50,-99.99,,,-99.99,,2013-03-20 02:03:00,
2013-03-19 22:12:00,39.0,24.0,-100.00,SSW,210,0.0,2.0,54,-99.99,,,-99.99,,2013-03-20 02:12:00,
2013-03-19 22:23:00,39.0,24.0,-100.00,SSW,210,0.0,2.0,54,-99.99,,,-99.99,,2013-03-20 02:23:00,
2013-03-19 22:32:00,40.0,25.0,-100.00,NW,320,4.0,11.0,54,-99.99,,,-99.99,,2013-03-20 02:32:00,
2013-03-19 22:43:00,43.0,21.0,-100.00,WNW,285,4.0,11.0,41,-99.99,,,-99.99,,2013-03-20 02:43:00,
2013-03-19 22:52:00,43.0,21.0,-100.00,WNW,285,4.0,11.0,41,-99.99,,,-99.99,,2013-03-20 02:52:00,
2013-03-19 23:02:00,44.0,18.0,-100.00,NW,320,7.0,17.0,35,-99.99,,,-99.99,,2013-03-20 03:02:00,
2013-03-19 23:12:00,43.0,15.0,-100.00,NW,320,11.0,25.0,31,-99.99,,,-99.99,,2013-03-20 03:12:00,
2013-03-19 23:22:00,43.0,15.0,-100.00,NW,320,11.0,25.0,31,-99.99,,,-99.99,,2013-03-20 03:22:00,
2013-03-19 23:34:00,42.0,12.0,-100.00,North,355,8.0,24.0,29,-99.99,,,-99.99,,2013-03-20 03:34:00,
2013-03-19 23:43:00,41.0,11.0,-100.00,NW,320,8.0,17.0,29,-99.99,,,-99.99,,2013-03-20 03:43:00,
2013-03-19 23:53:00,41.0,11.0,-100.00,NW,320,8.0,17.0,29,-99.99,,,-99.99,,2013-03-20 03:53:00,